Find Starlink 30497

NORAD ID: 58011 Int'l Des: 2023-153 Owner: SPXS Country: US Constellation: starlink operational
LEOCIRCULAR

リアルタイム位置

3D地球を読み込み中...

Starlink 30497について

説明を読み込み中...

次回通過

Passes for default location (London). Set your location on the main map for personalized predictions.

高度履歴

Loading altitude history...

軌道要素

1 58011U 23153W 26123.04884388 .00000118 00000-0 13808-4 0 9990
2 58011 43.0065 119.7244 0001722 270.5799 89.4855 15.27580936143210
Epoch: May 3, 2026 • Age: 23 hours

現在のステータス

高度 485.1 km
速度 7.63 km/s
衛星直下点 32.79°N, 33.67°E
打ち上げ日 Oct 5, 2023
運用期間 2.5 years
タイプ internet

技術仕様

分類 Payload
質量 730.00 kg
乾燥質量 700.00 kg
総質量 730.00 kg
長さ 0.30 m
直径 4.10 m
スパン 29.00 m
形状 Box + pan
製造者 SPXS
バスタイプ Starlink V2M
フェーズステータス In Orbit
所有者/国 SPXS/US

Most Searched